owner,sensor,date,latitude,longitude,sea_surface_height_above_sea_level,qcFlag 
TCOON,ioos:station:TCOON:524:1,2017-11-01T00:18:00Z,29.8672,-93.9310,1.532,1111122 
TCOON,ioos:station:TCOON:524:1,2017-11-01T01:18:00Z,29.8672,-93.9310,1.51,1111122 
TCOON,ioos:station:TCOON:524:1,2017-11-01T02:18:00Z,29.8672,-93.9310,1.54,1111122 
TCOON,ioos:station:TCOON:524:1,2017-11-01T03:24:00Z,29.8672,-93.9310,1.531,1111122 
TCOON,ioos:station:TCOON:524:1,2017-11-01T04:18:00Z,29.8672,-93.9310,1.563,1111122 
TCOON,ioos:station:TCOON:524:1,2017-11-01T05:18:00Z,29.8672,-93.9310,1.577,1111122 
TCOON,ioos:station:TCOON:524:1,2017-11-01T06:18:00Z,29.8672,-93.9310,1.638,1111122 
TCOON,ioos:station:TCOON:524:1,2017-11-01T07:18:00Z,29.8672,-93.9310,1.665,1111122 
TCOON,ioos:station:TCOON:524:1,2017-11-01T08:18:00Z,29.8672,-93.9310,1.674,1111122 
TCOON,ioos:station:TCOON:524:1,2017-11-01T09:18:00Z,29.8672,-93.9310,1.698,1111122 
TCOON,ioos:station:TCOON:524:1,2017-11-01T10:18:00Z,29.8672,-93.9310,1.687,1111122 
TCOON,ioos:station:TCOON:524:1,2017-11-01T11:18:00Z,29.8672,-93.9310,1.704,1111122 
TCOON,ioos:station:TCOON:524:1,2017-11-01T12:18:00Z,29.8672,-93.9310,1.707,1111122 
TCOON,ioos:station:TCOON:524:1,2017-11-01T13:18:00Z,29.8672,-93.9310,1.719,1111122 
TCOON,ioos:station:TCOON:524:1,2017-11-01T14:18:00Z,29.8672,-93.9310,1.717,1111122 
TCOON,ioos:station:TCOON:524:1,2017-11-01T15:18:00Z,29.8672,-93.9310,1.734,1111122 
TCOON,ioos:station:TCOON:524:1,2017-11-01T16:18:00Z,29.8672,-93.9310,1.793,1111122 
TCOON,ioos:station:TCOON:524:1,2017-11-01T17:18:00Z,29.8672,-93.9310,1.748,1111122 
TCOON,ioos:station:TCOON:524:1,2017-11-01T18:18:00Z,29.8672,-93.9310,1.801,1111122 
TCOON,ioos:station:TCOON:524:1,2017-11-01T19:18:00Z,29.8672,-93.9310,1.844,1111122 
TCOON,ioos:station:TCOON:524:1,2017-11-01T20:18:00Z,29.8672,-93.9310,1.832,1111122 
TCOON,ioos:station:TCOON:524:1,2017-11-01T21:18:00Z,29.8672,-93.9310,1.813,1111122 
TCOON,ioos:station:TCOON:524:1,2017-11-01T22:18:00Z,29.8672,-93.9310,1.865,1111122 
TCOON,ioos:station:TCOON:524:1,2017-11-01T23:18:00Z,29.8672,-93.9310,1.787,1111122 
TCOON,ioos:station:TCOON:524:1,2017-11-02T00:18:00Z,29.8672,-93.9310,1.775,1111122 
TCOON,ioos:station:TCOON:524:1,2017-11-02T01:18:00Z,29.8672,-93.9310,1.749,1111122 
TCOON,ioos:station:TCOON:524:1,2017-11-02T02:18:00Z,29.8672,-93.9310,1.725,1111122 
TCOON,ioos:station:TCOON:524:1,2017-11-02T03:18:00Z,29.8672,-93.9310,1.716,1111122 
TCOON,ioos:station:TCOON:524:1,2017-11-02T04:18:00Z,29.8672,-93.9310,1.76,1111122 
TCOON,ioos:station:TCOON:524:1,2017-11-02T05:18:00Z,29.8672,-93.9310,1.729,1111122 
TCOON,ioos:station:TCOON:524:1,2017-11-02T06:18:00Z,29.8672,-93.9310,1.773,1111122 
TCOON,ioos:station:TCOON:524:1,2017-11-02T07:18:00Z,29.8672,-93.9310,1.813,1111122 
TCOON,ioos:station:TCOON:524:1,2017-11-02T08:18:00Z,29.8672,-93.9310,1.824,1111122 
TCOON,ioos:station:TCOON:524:1,2017-11-02T09:18:00Z,29.8672,-93.9310,1.85,1111122 
TCOON,ioos:station:TCOON:524:1,2017-11-02T10:18:00Z,29.8672,-93.9310,1.831,1111122 
TCOON,ioos:station:TCOON:524:1,2017-11-02T11:18:00Z,29.8672,-93.9310,1.772,1111122 
TCOON,ioos:station:TCOON:524:1,2017-11-02T12:18:00Z,29.8672,-93.9310,1.775,1111122 
TCOON,ioos:station:TCOON:524:1,2017-11-02T13:18:00Z,29.8672,-93.9310,1.736,1111122 
TCOON,ioos:station:TCOON:524:1,2017-11-02T14:18:00Z,29.8672,-93.9310,1.68,1111122 
TCOON,ioos:station:TCOON:524:1,2017-11-02T15:18:00Z,29.8672,-93.9310,1.663,1111122 
TCOON,ioos:station:TCOON:524:1,2017-11-02T16:18:00Z,29.8672,-93.9310,1.667,1111122 
TCOON,ioos:station:TCOON:524:1,2017-11-02T17:18:00Z,29.8672,-93.9310,1.696,1111122 
TCOON,ioos:station:TCOON:524:1,2017-11-02T18:18:00Z,29.8672,-93.9310,1.719,1111122 
TCOON,ioos:station:TCOON:524:1,2017-11-02T19:18:00Z,29.8672,-93.9310,1.773,1111122 
TCOON,ioos:station:TCOON:524:1,2017-11-02T20:18:00Z,29.8672,-93.9310,1.816,1111122 
TCOON,ioos:station:TCOON:524:1,2017-11-02T21:18:00Z,29.8672,-93.9310,1.87,1111122 
TCOON,ioos:station:TCOON:524:1,2017-11-02T22:18:00Z,29.8672,-93.9310,1.851,1111122 
TCOON,ioos:station:TCOON:524:1,2017-11-02T23:18:00Z,29.8672,-93.9310,1.853,1111122 
TCOON,ioos:station:TCOON:524:1,2017-11-03T00:18:00Z,29.8672,-93.9310,1.826,1111122 
TCOON,ioos:station:TCOON:524:1,2017-11-03T01:18:00Z,29.8672,-93.9310,1.804,1111122 
TCOON,ioos:station:TCOON:524:1,2017-11-03T02:18:00Z,29.8672,-93.9310,1.757,1111122 
TCOON,ioos:station:TCOON:524:1,2017-11-03T03:18:00Z,29.8672,-93.9310,1.727,1111122 
TCOON,ioos:station:TCOON:524:1,2017-11-03T04:24:00Z,29.8672,-93.9310,1.733,1111122 
TCOON,ioos:station:TCOON:524:1,2017-11-03T05:18:00Z,29.8672,-93.9310,1.74,1111122 
TCOON,ioos:station:TCOON:524:1,2017-11-03T06:18:00Z,29.8672,-93.9310,1.765,1111122 
TCOON,ioos:station:TCOON:524:1,2017-11-03T07:18:00Z,29.8672,-93.9310,1.766,1111122 
TCOON,ioos:station:TCOON:524:1,2017-11-03T08:18:00Z,29.8672,-93.9310,1.795,1111122 
TCOON,ioos:station:TCOON:524:1,2017-11-03T09:18:00Z,29.8672,-93.9310,1.815,1111122 
TCOON,ioos:station:TCOON:524:1,2017-11-03T10:18:00Z,29.8672,-93.9310,1.79,1111122 
TCOON,ioos:station:TCOON:524:1,2017-11-03T11:18:00Z,29.8672,-93.9310,1.776,1111122 
TCOON,ioos:station:TCOON:524:1,2017-11-03T12:18:00Z,29.8672,-93.9310,1.715,1111122 
TCOON,ioos:station:TCOON:524:1,2017-11-03T13:18:00Z,29.8672,-93.9310,1.635,1111122 
TCOON,ioos:station:TCOON:524:1,2017-11-03T14:18:00Z,29.8672,-93.9310,1.555,1111122 
TCOON,ioos:station:TCOON:524:1,2017-11-03T15:18:00Z,29.8672,-93.9310,1.596,1111122 
TCOON,ioos:station:TCOON:524:1,2017-11-03T16:18:00Z,29.8672,-93.9310,1.567,1111122 
TCOON,ioos:station:TCOON:524:1,2017-11-03T17:18:00Z,29.8672,-93.9310,1.57,1111122 
TCOON,ioos:station:TCOON:524:1,2017-11-03T18:18:00Z,29.8672,-93.9310,1.596,1111122 
TCOON,ioos:station:TCOON:524:1,2017-11-03T19:18:00Z,29.8672,-93.9310,1.688,1111122 
TCOON,ioos:station:TCOON:524:1,2017-11-03T20:18:00Z,29.8672,-93.9310,1.727,1111122 
TCOON,ioos:station:TCOON:524:1,2017-11-03T21:18:00Z,29.8672,-93.9310,1.821,1111122 
TCOON,ioos:station:TCOON:524:1,2017-11-03T22:18:00Z,29.8672,-93.9310,1.828,1111122 
TCOON,ioos:station:TCOON:524:1,2017-11-03T23:24:00Z,29.8672,-93.9310,1.815,1111122 
TCOON,ioos:station:TCOON:524:1,2017-11-04T00:24:00Z,29.8672,-93.9310,1.806,1111122 
TCOON,ioos:station:TCOON:524:1,2017-11-04T01:30:00Z,29.8672,-93.9310,1.814,1111122 
TCOON,ioos:station:TCOON:524:1,2017-11-04T02:18:00Z,29.8672,-93.9310,1.801,1111122 
TCOON,ioos:station:TCOON:524:1,2017-11-04T03:18:00Z,29.8672,-93.9310,1.753,1111122 
TCOON,ioos:station:TCOON:524:1,2017-11-04T04:18:00Z,29.8672,-93.9310,1.737,1111122 
TCOON,ioos:station:TCOON:524:1,2017-11-04T05:18:00Z,29.8672,-93.9310,1.768,1111122 
TCOON,ioos:station:TCOON:524:1,2017-11-04T06:18:00Z,29.8672,-93.9310,1.773,1111122 
TCOON,ioos:station:TCOON:524:1,2017-11-04T07:18:00Z,29.8672,-93.9310,1.775,1111122 
TCOON,ioos:station:TCOON:524:1,2017-11-04T08:18:00Z,29.8672,-93.9310,1.8,1111122 
TCOON,ioos:station:TCOON:524:1,2017-11-04T09:18:00Z,29.8672,-93.9310,1.808,1111122 
TCOON,ioos:station:TCOON:524:1,2017-11-04T10:18:00Z,29.8672,-93.9310,1.783,1111122 
TCOON,ioos:station:TCOON:524:1,2017-11-04T11:18:00Z,29.8672,-93.9310,1.776,1111122 
TCOON,ioos:station:TCOON:524:1,2017-11-04T12:18:00Z,29.8672,-93.9310,1.719,1111122 
TCOON,ioos:station:TCOON:524:1,2017-11-04T13:18:00Z,29.8672,-93.9310,1.631,1111122 
TCOON,ioos:station:TCOON:524:1,2017-11-04T14:18:00Z,29.8672,-93.9310,1.552,1111122 
TCOON,ioos:station:TCOON:524:1,2017-11-04T15:18:00Z,29.8672,-93.9310,1.512,1111122 
TCOON,ioos:station:TCOON:524:1,2017-11-04T16:18:00Z,29.8672,-93.9310,1.469,1111122 
TCOON,ioos:station:TCOON:524:1,2017-11-04T17:18:00Z,29.8672,-93.9310,1.51,1111122 
TCOON,ioos:station:TCOON:524:1,2017-11-04T18:18:00Z,29.8672,-93.9310,1.543,1111122 
TCOON,ioos:station:TCOON:524:1,2017-11-04T19:18:00Z,29.8672,-93.9310,1.614,1111122 
TCOON,ioos:station:TCOON:524:1,2017-11-04T20:18:00Z,29.8672,-93.9310,1.695,1111122 
TCOON,ioos:station:TCOON:524:1,2017-11-04T21:18:00Z,29.8672,-93.9310,1.762,1111122 
TCOON,ioos:station:TCOON:524:1,2017-11-04T22:18:00Z,29.8672,-93.9310,1.762,1111122 
TCOON,ioos:station:TCOON:524:1,2017-11-04T23:18:00Z,29.8672,-93.9310,1.833,1111122 
TCOON,ioos:station:TCOON:524:1,2017-11-05T00:18:00Z,29.8672,-93.9310,1.811,1111122 
TCOON,ioos:station:TCOON:524:1,2017-11-05T01:18:00Z,29.8672,-93.9310,1.837,1111122 
TCOON,ioos:station:TCOON:524:1,2017-11-05T02:18:00Z,29.8672,-93.9310,1.841,1111122 
TCOON,ioos:station:TCOON:524:1,2017-11-05T03:18:00Z,29.8672,-93.9310,1.788,1111122 
TCOON,ioos:station:TCOON:524:1,2017-11-05T04:18:00Z,29.8672,-93.9310,1.774,1111122 
TCOON,ioos:station:TCOON:524:1,2017-11-05T05:18:00Z,29.8672,-93.9310,1.842,1111122 
TCOON,ioos:station:TCOON:524:1,2017-11-05T06:18:00Z,29.8672,-93.9310,1.839,1111122 
TCOON,ioos:station:TCOON:524:1,2017-11-05T07:18:00Z,29.8672,-93.9310,1.835,1111122 
TCOON,ioos:station:TCOON:524:1,2017-11-05T08:18:00Z,29.8672,-93.9310,1.857,1111122 
TCOON,ioos:station:TCOON:524:1,2017-11-05T09:18:00Z,29.8672,-93.9310,1.859,1111122 
TCOON,ioos:station:TCOON:524:1,2017-11-05T10:18:00Z,29.8672,-93.9310,1.88,1111122 
TCOON,ioos:station:TCOON:524:1,2017-11-05T11:24:00Z,29.8672,-93.9310,1.851,1111122 
TCOON,ioos:station:TCOON:524:1,2017-11-05T12:18:00Z,29.8672,-93.9310,1.828,1111122 
TCOON,ioos:station:TCOON:524:1,2017-11-05T13:18:00Z,29.8672,-93.9310,1.731,1111122 
TCOON,ioos:station:TCOON:524:1,2017-11-05T14:18:00Z,29.8672,-93.9310,1.641,1111122 
TCOON,ioos:station:TCOON:524:1,2017-11-05T15:18:00Z,29.8672,-93.9310,1.562,1111122 
TCOON,ioos:station:TCOON:524:1,2017-11-05T16:18:00Z,29.8672,-93.9310,1.537,1111122 
TCOON,ioos:station:TCOON:524:1,2017-11-05T17:18:00Z,29.8672,-93.9310,1.455,1111122 
TCOON,ioos:station:TCOON:524:1,2017-11-05T18:18:00Z,29.8672,-93.9310,1.528,1111122 
TCOON,ioos:station:TCOON:524:1,2017-11-05T19:18:00Z,29.8672,-93.9310,1.559,1111122 
TCOON,ioos:station:TCOON:524:1,2017-11-05T20:18:00Z,29.8672,-93.9310,1.621,1111122 
TCOON,ioos:station:TCOON:524:1,2017-11-05T21:18:00Z,29.8672,-93.9310,1.691,1111122 
TCOON,ioos:station:TCOON:524:1,2017-11-05T22:18:00Z,29.8672,-93.9310,1.805,1111122 
TCOON,ioos:station:TCOON:524:1,2017-11-05T23:18:00Z,29.8672,-93.9310,1.832,1111122 
TCOON,ioos:station:TCOON:524:1,2017-11-06T00:18:00Z,29.8672,-93.9310,1.861,1111122 
TCOON,ioos:station:TCOON:524:1,2017-11-06T01:18:00Z,29.8672,-93.9310,1.837,1111122 
TCOON,ioos:station:TCOON:524:1,2017-11-06T02:18:00Z,29.8672,-93.9310,1.864,1111122 
TCOON,ioos:station:TCOON:524:1,2017-11-06T03:18:00Z,29.8672,-93.9310,1.865,1111122 
TCOON,ioos:station:TCOON:524:1,2017-11-06T04:18:00Z,29.8672,-93.9310,1.86,1111122 
TCOON,ioos:station:TCOON:524:1,2017-11-06T05:18:00Z,29.8672,-93.9310,1.88,1111122 
TCOON,ioos:station:TCOON:524:1,2017-11-06T06:18:00Z,29.8672,-93.9310,1.871,1111122 
TCOON,ioos:station:TCOON:524:1,2017-11-06T07:18:00Z,29.8672,-93.9310,1.859,1111122 
TCOON,ioos:station:TCOON:524:1,2017-11-06T08:18:00Z,29.8672,-93.9310,1.862,1111122 
TCOON,ioos:station:TCOON:524:1,2017-11-06T09:18:00Z,29.8672,-93.9310,1.903,1111122 
TCOON,ioos:station:TCOON:524:1,2017-11-06T10:18:00Z,29.8672,-93.9310,1.919,1111122 
TCOON,ioos:station:TCOON:524:1,2017-11-06T11:18:00Z,29.8672,-93.9310,1.888,1111122 
TCOON,ioos:station:TCOON:524:1,2017-11-06T12:18:00Z,29.8672,-93.9310,1.834,1111122 
TCOON,ioos:station:TCOON:524:1,2017-11-06T13:18:00Z,29.8672,-93.9310,1.754,1111122 
TCOON,ioos:station:TCOON:524:1,2017-11-06T14:18:00Z,29.8672,-93.9310,1.666,1111122 
TCOON,ioos:station:TCOON:524:1,2017-11-06T15:18:00Z,29.8672,-93.9310,1.467,1111122 
TCOON,ioos:station:TCOON:524:1,2017-11-06T16:18:00Z,29.8672,-93.9310,1.533,1111122 
TCOON,ioos:station:TCOON:524:1,2017-11-06T17:18:00Z,29.8672,-93.9310,1.472,1111122 
TCOON,ioos:station:TCOON:524:1,2017-11-06T18:18:00Z,29.8672,-93.9310,1.455,1111122 
TCOON,ioos:station:TCOON:524:1,2017-11-06T19:18:00Z,29.8672,-93.9310,1.495,1111122 
TCOON,ioos:station:TCOON:524:1,2017-11-06T20:18:00Z,29.8672,-93.9310,1.522,1111122 
TCOON,ioos:station:TCOON:524:1,2017-11-06T21:18:00Z,29.8672,-93.9310,1.568,1111122 
TCOON,ioos:station:TCOON:524:1,2017-11-06T22:18:00Z,29.8672,-93.9310,1.735,1111122 
TCOON,ioos:station:TCOON:524:1,2017-11-06T23:18:00Z,29.8672,-93.9310,1.693,1111122 
TCOON,ioos:station:TCOON:524:1,2017-11-07T00:18:00Z,29.8672,-93.9310,1.781,1111122 
TCOON,ioos:station:TCOON:524:1,2017-11-07T01:18:00Z,29.8672,-93.9310,1.745,1111122 
TCOON,ioos:station:TCOON:524:1,2017-11-07T02:18:00Z,29.8672,-93.9310,1.807,1111122 
TCOON,ioos:station:TCOON:524:1,2017-11-07T03:18:00Z,29.8672,-93.9310,1.819,1111122 
TCOON,ioos:station:TCOON:524:1,2017-11-07T04:18:00Z,29.8672,-93.9310,1.819,1111122 
TCOON,ioos:station:TCOON:524:1,2017-11-07T05:18:00Z,29.8672,-93.9310,1.81,1111122 
TCOON,ioos:station:TCOON:524:1,2017-11-07T06:18:00Z,29.8672,-93.9310,1.815,1111122 
TCOON,ioos:station:TCOON:524:1,2017-11-07T07:18:00Z,29.8672,-93.9310,1.827,1111122 
TCOON,ioos:station:TCOON:524:1,2017-11-07T08:18:00Z,29.8672,-93.9310,1.835,1111122 
TCOON,ioos:station:TCOON:524:1,2017-11-07T09:18:00Z,29.8672,-93.9310,1.847,1111122 
TCOON,ioos:station:TCOON:524:1,2017-11-07T10:18:00Z,29.8672,-93.9310,1.855,1111122 
TCOON,ioos:station:TCOON:524:1,2017-11-07T11:18:00Z,29.8672,-93.9310,1.852,1111122 
TCOON,ioos:station:TCOON:524:1,2017-11-07T12:18:00Z,29.8672,-93.9310,1.807,1111122 
TCOON,ioos:station:TCOON:524:1,2017-11-07T13:18:00Z,29.8672,-93.9310,1.769,1111122 
TCOON,ioos:station:TCOON:524:1,2017-11-07T14:18:00Z,29.8672,-93.9310,1.663,1111122 
TCOON,ioos:station:TCOON:524:1,2017-11-07T16:24:00Z,29.8672,-93.9310,1.541,1111122 
TCOON,ioos:station:TCOON:524:1,2017-11-07T17:18:00Z,29.8672,-93.9310,1.482,1111122 
TCOON,ioos:station:TCOON:524:1,2017-11-07T18:48:00Z,29.8672,-93.9310,1.452,1111122 
TCOON,ioos:station:TCOON:524:1,2017-11-07T19:18:00Z,29.8672,-93.9310,1.468,1111122 
TCOON,ioos:station:TCOON:524:1,2017-11-07T20:18:00Z,29.8672,-93.9310,1.419,1111122 
TCOON,ioos:station:TCOON:524:1,2017-11-07T21:24:00Z,29.8672,-93.9310,1.547,1111122 
TCOON,ioos:station:TCOON:524:1,2017-11-07T22:36:00Z,29.8672,-93.9310,1.605,1111122 
TCOON,ioos:station:TCOON:524:1,2017-11-07T23:18:00Z,29.8672,-93.9310,1.678,1111122 
TCOON,ioos:station:TCOON:524:1,2017-11-08T00:18:00Z,29.8672,-93.9310,1.746,1111122 
TCOON,ioos:station:TCOON:524:1,2017-11-08T01:18:00Z,29.8672,-93.9310,1.766,1111122 
TCOON,ioos:station:TCOON:524:1,2017-11-08T02:18:00Z,29.8672,-93.9310,1.733,1111122 
TCOON,ioos:station:TCOON:524:1,2017-11-08T04:06:00Z,29.8672,-93.9310,1.84,1111122 
TCOON,ioos:station:TCOON:524:1,2017-11-08T05:30:00Z,29.8672,-93.9310,1.823,1111122 
TCOON,ioos:station:TCOON:524:1,2017-11-08T06:30:00Z,29.8672,-93.9310,1.839,1111122 
TCOON,ioos:station:TCOON:524:1,2017-11-08T07:30:00Z,29.8672,-93.9310,1.835,1111122 
TCOON,ioos:station:TCOON:524:1,2017-11-08T08:24:00Z,29.8672,-93.9310,1.824,1111122 
TCOON,ioos:station:TCOON:524:1,2017-11-08T09:30:00Z,29.8672,-93.9310,1.809,1111122 
TCOON,ioos:station:TCOON:524:1,2017-11-08T10:18:00Z,29.8672,-93.9310,1.825,1111122 
TCOON,ioos:station:TCOON:524:1,2017-11-08T11:18:00Z,29.8672,-93.9310,1.829,1111122 
TCOON,ioos:station:TCOON:524:1,2017-11-08T12:18:00Z,29.8672,-93.9310,1.769,1111122 
TCOON,ioos:station:TCOON:524:1,2017-11-08T13:18:00Z,29.8672,-93.9310,1.709,1111122 
TCOON,ioos:station:TCOON:524:1,2017-11-08T14:18:00Z,29.8672,-93.9310,1.665,1111122 
TCOON,ioos:station:TCOON:524:1,2017-11-08T15:18:00Z,29.8672,-93.9310,1.608,1111122 
TCOON,ioos:station:TCOON:524:1,2017-11-08T16:18:00Z,29.8672,-93.9310,1.532,1111122 
TCOON,ioos:station:TCOON:524:1,2017-11-08T17:18:00Z,29.8672,-93.9310,1.456,1111122 
TCOON,ioos:station:TCOON:524:1,2017-11-08T18:18:00Z,29.8672,-93.9310,1.442,1111122 
TCOON,ioos:station:TCOON:524:1,2017-11-08T19:18:00Z,29.8672,-93.9310,1.37,1111122 
TCOON,ioos:station:TCOON:524:1,2017-11-08T20:18:00Z,29.8672,-93.9310,1.369,1111122 
TCOON,ioos:station:TCOON:524:1,2017-11-08T21:18:00Z,29.8672,-93.9310,1.409,1111122 
TCOON,ioos:station:TCOON:524:1,2017-11-08T22:18:00Z,29.8672,-93.9310,1.443,1111122 
TCOON,ioos:station:TCOON:524:1,2017-11-08T23:18:00Z,29.8672,-93.9310,1.478,1111122 
TCOON,ioos:station:TCOON:524:1,2017-11-09T00:18:00Z,29.8672,-93.9310,1.521,1111122 
TCOON,ioos:station:TCOON:524:1,2017-11-09T01:18:00Z,29.8672,-93.9310,1.57,1111122 
TCOON,ioos:station:TCOON:524:1,2017-11-09T02:18:00Z,29.8672,-93.9310,1.612,1111122 
TCOON,ioos:station:TCOON:524:1,2017-11-09T03:18:00Z,29.8672,-93.9310,1.659,1111122 
TCOON,ioos:station:TCOON:524:1,2017-11-09T04:18:00Z,29.8672,-93.9310,1.674,1111122 
TCOON,ioos:station:TCOON:524:1,2017-11-09T05:18:00Z,29.8672,-93.9310,1.704,1111122 
TCOON,ioos:station:TCOON:524:1,2017-11-09T06:18:00Z,29.8672,-93.9310,1.745,1111122 
TCOON,ioos:station:TCOON:524:1,2017-11-09T07:18:00Z,29.8672,-93.9310,1.738,1111122 
TCOON,ioos:station:TCOON:524:1,2017-11-09T08:18:00Z,29.8672,-93.9310,1.731,1111122 
TCOON,ioos:station:TCOON:524:1,2017-11-09T09:18:00Z,29.8672,-93.9310,1.762,1111122 
TCOON,ioos:station:TCOON:524:1,2017-11-09T10:18:00Z,29.8672,-93.9310,1.745,1111122 
TCOON,ioos:station:TCOON:524:1,2017-11-09T11:18:00Z,29.8672,-93.9310,1.719,1111122 
TCOON,ioos:station:TCOON:524:1,2017-11-09T12:18:00Z,29.8672,-93.9310,1.683,1111122 
TCOON,ioos:station:TCOON:524:1,2017-11-09T13:18:00Z,29.8672,-93.9310,1.644,1111122 
TCOON,ioos:station:TCOON:524:1,2017-11-09T14:18:00Z,29.8672,-93.9310,1.678,1111122 
TCOON,ioos:station:TCOON:524:1,2017-11-09T15:18:00Z,29.8672,-93.9310,1.66,1111122 
TCOON,ioos:station:TCOON:524:1,2017-11-09T16:18:00Z,29.8672,-93.9310,1.536,1111122 
TCOON,ioos:station:TCOON:524:1,2017-11-09T17:18:00Z,29.8672,-93.9310,1.48,1111122 
TCOON,ioos:station:TCOON:524:1,2017-11-09T18:18:00Z,29.8672,-93.9310,1.478,1111122 
TCOON,ioos:station:TCOON:524:1,2017-11-09T19:18:00Z,29.8672,-93.9310,1.447,1111122 
TCOON,ioos:station:TCOON:524:1,2017-11-09T20:18:00Z,29.8672,-93.9310,1.445,1111122 
TCOON,ioos:station:TCOON:524:1,2017-11-09T21:18:00Z,29.8672,-93.9310,1.425,1111122 
TCOON,ioos:station:TCOON:524:1,2017-11-09T22:18:00Z,29.8672,-93.9310,1.392,1111122 
TCOON,ioos:station:TCOON:524:1,2017-11-09T23:18:00Z,29.8672,-93.9310,1.431,1111122 
TCOON,ioos:station:TCOON:524:1,2017-11-10T00:18:00Z,29.8672,-93.9310,1.442,1111122 
TCOON,ioos:station:TCOON:524:1,2017-11-10T01:18:00Z,29.8672,-93.9310,1.505,1111122 
TCOON,ioos:station:TCOON:524:1,2017-11-10T02:18:00Z,29.8672,-93.9310,1.588,1111122 
TCOON,ioos:station:TCOON:524:1,2017-11-10T03:18:00Z,29.8672,-93.9310,1.631,1111122 
TCOON,ioos:station:TCOON:524:1,2017-11-10T04:18:00Z,29.8672,-93.9310,1.669,1111122 
TCOON,ioos:station:TCOON:524:1,2017-11-10T05:18:00Z,29.8672,-93.9310,1.687,1111122 
TCOON,ioos:station:TCOON:524:1,2017-11-10T06:18:00Z,29.8672,-93.9310,1.742,1111122 
TCOON,ioos:station:TCOON:524:1,2017-11-10T07:18:00Z,29.8672,-93.9310,1.789,1111122 
TCOON,ioos:station:TCOON:524:1,2017-11-10T08:18:00Z,29.8672,-93.9310,1.768,1111122 
TCOON,ioos:station:TCOON:524:1,2017-11-10T09:18:00Z,29.8672,-93.9310,1.806,1111122 
TCOON,ioos:station:TCOON:524:1,2017-11-10T10:18:00Z,29.8672,-93.9310,1.813,1111122 
TCOON,ioos:station:TCOON:524:1,2017-11-10T11:18:00Z,29.8672,-93.9310,1.772,1111122 
TCOON,ioos:station:TCOON:524:1,2017-11-10T12:18:00Z,29.8672,-93.9310,1.774,1111122 
TCOON,ioos:station:TCOON:524:1,2017-11-10T13:18:00Z,29.8672,-93.9310,1.806,1111122 
TCOON,ioos:station:TCOON:524:1,2017-11-10T14:18:00Z,29.8672,-93.9310,1.796,1111122 
TCOON,ioos:station:TCOON:524:1,2017-11-10T15:18:00Z,29.8672,-93.9310,1.753,1111122 
TCOON,ioos:station:TCOON:524:1,2017-11-10T16:18:00Z,29.8672,-93.9310,1.771,1111122 
TCOON,ioos:station:TCOON:524:1,2017-11-10T17:18:00Z,29.8672,-93.9310,1.721,1111122 
TCOON,ioos:station:TCOON:524:1,2017-11-10T18:18:00Z,29.8672,-93.9310,1.666,1111122 
TCOON,ioos:station:TCOON:524:1,2017-11-10T19:18:00Z,29.8672,-93.9310,1.651,1111122 
TCOON,ioos:station:TCOON:524:1,2017-11-10T20:18:00Z,29.8672,-93.9310,1.578,1111122 
TCOON,ioos:station:TCOON:524:1,2017-11-10T21:18:00Z,29.8672,-93.9310,1.567,1111122 
TCOON,ioos:station:TCOON:524:1,2017-11-10T22:18:00Z,29.8672,-93.9310,1.544,1111122 
TCOON,ioos:station:TCOON:524:1,2017-11-10T23:18:00Z,29.8672,-93.9310,1.487,1111122 
TCOON,ioos:station:TCOON:524:1,2017-11-11T00:18:00Z,29.8672,-93.9310,1.577,1111122 
TCOON,ioos:station:TCOON:524:1,2017-11-11T01:18:00Z,29.8672,-93.9310,1.586,1111122 
TCOON,ioos:station:TCOON:524:1,2017-11-11T02:18:00Z,29.8672,-93.9310,1.63,1111122 
TCOON,ioos:station:TCOON:524:1,2017-11-11T03:18:00Z,29.8672,-93.9310,1.693,1111122 
TCOON,ioos:station:TCOON:524:1,2017-11-11T04:18:00Z,29.8672,-93.9310,1.744,1111122 
TCOON,ioos:station:TCOON:524:1,2017-11-11T05:18:00Z,29.8672,-93.9310,1.77,1111122 
TCOON,ioos:station:TCOON:524:1,2017-11-11T06:18:00Z,29.8672,-93.9310,1.794,1111122 
TCOON,ioos:station:TCOON:524:1,2017-11-11T07:18:00Z,29.8672,-93.9310,1.785,1111122 
TCOON,ioos:station:TCOON:524:1,2017-11-11T08:18:00Z,29.8672,-93.9310,1.872,1111122 
TCOON,ioos:station:TCOON:524:1,2017-11-11T09:18:00Z,29.8672,-93.9310,1.855,1111122 
TCOON,ioos:station:TCOON:524:1,2017-11-11T10:18:00Z,29.8672,-93.9310,1.845,1111122 
TCOON,ioos:station:TCOON:524:1,2017-11-11T11:18:00Z,29.8672,-93.9310,1.855,1111122 
TCOON,ioos:station:TCOON:524:1,2017-11-11T12:18:00Z,29.8672,-93.9310,1.838,1111122 
TCOON,ioos:station:TCOON:524:1,2017-11-11T13:18:00Z,29.8672,-93.9310,1.834,1111122 
TCOON,ioos:station:TCOON:524:1,2017-11-11T14:18:00Z,29.8672,-93.9310,1.856,1111122 
TCOON,ioos:station:TCOON:524:1,2017-11-11T15:18:00Z,29.8672,-93.9310,1.805,1111122 
TCOON,ioos:station:TCOON:524:1,2017-11-11T16:18:00Z,29.8672,-93.9310,1.826,1111122 
TCOON,ioos:station:TCOON:524:1,2017-11-11T17:18:00Z,29.8672,-93.9310,1.811,1111122 
TCOON,ioos:station:TCOON:524:1,2017-11-11T18:18:00Z,29.8672,-93.9310,1.799,1111122 
TCOON,ioos:station:TCOON:524:1,2017-11-11T19:18:00Z,29.8672,-93.9310,1.753,1111122 
TCOON,ioos:station:TCOON:524:1,2017-11-11T20:18:00Z,29.8672,-93.9310,1.71,1111122 
TCOON,ioos:station:TCOON:524:1,2017-11-11T21:18:00Z,29.8672,-93.9310,1.663,1111122 
TCOON,ioos:station:TCOON:524:1,2017-11-11T22:18:00Z,29.8672,-93.9310,1.527,1111122 
TCOON,ioos:station:TCOON:524:1,2017-11-11T23:18:00Z,29.8672,-93.9310,1.589,1111122 
TCOON,ioos:station:TCOON:524:1,2017-11-12T00:18:00Z,29.8672,-93.9310,1.639,1111122 
TCOON,ioos:station:TCOON:524:1,2017-11-12T01:18:00Z,29.8672,-93.9310,1.646,1111122 
TCOON,ioos:station:TCOON:524:1,2017-11-12T02:18:00Z,29.8672,-93.9310,1.659,1111122 
TCOON,ioos:station:TCOON:524:1,2017-11-12T03:18:00Z,29.8672,-93.9310,1.644,1111122 
TCOON,ioos:station:TCOON:524:1,2017-11-12T04:18:00Z,29.8672,-93.9310,1.785,1111122 
TCOON,ioos:station:TCOON:524:1,2017-11-12T05:18:00Z,29.8672,-93.9310,1.822,1111122 
TCOON,ioos:station:TCOON:524:1,2017-11-12T06:18:00Z,29.8672,-93.9310,1.824,1111122 
TCOON,ioos:station:TCOON:524:1,2017-11-12T07:18:00Z,29.8672,-93.9310,1.861,1111122 
TCOON,ioos:station:TCOON:524:1,2017-11-12T08:18:00Z,29.8672,-93.9310,1.864,1111122 
TCOON,ioos:station:TCOON:524:1,2017-11-12T09:18:00Z,29.8672,-93.9310,1.858,1111122 
TCOON,ioos:station:TCOON:524:1,2017-11-12T10:18:00Z,29.8672,-93.9310,1.85,1111122 
TCOON,ioos:station:TCOON:524:1,2017-11-12T11:18:00Z,29.8672,-93.9310,1.818,1111122 
TCOON,ioos:station:TCOON:524:1,2017-11-12T12:18:00Z,29.8672,-93.9310,1.75,1111122 
TCOON,ioos:station:TCOON:524:1,2017-11-12T13:18:00Z,29.8672,-93.9310,1.741,1111122 
TCOON,ioos:station:TCOON:524:1,2017-11-12T14:18:00Z,29.8672,-93.9310,1.745,1111122 
TCOON,ioos:station:TCOON:524:1,2017-11-12T15:18:00Z,29.8672,-93.9310,1.717,1111122 
TCOON,ioos:station:TCOON:524:1,2017-11-12T16:18:00Z,29.8672,-93.9310,1.76,1111122 
TCOON,ioos:station:TCOON:524:1,2017-11-12T17:18:00Z,29.8672,-93.9310,1.763,1111122 
TCOON,ioos:station:TCOON:524:1,2017-11-12T18:18:00Z,29.8672,-93.9310,1.734,1111122 
TCOON,ioos:station:TCOON:524:1,2017-11-12T19:18:00Z,29.8672,-93.9310,1.747,1111122 
TCOON,ioos:station:TCOON:524:1,2017-11-12T20:18:00Z,29.8672,-93.9310,1.751,1111122 
TCOON,ioos:station:TCOON:524:1,2017-11-12T21:18:00Z,29.8672,-93.9310,1.722,1111122 
TCOON,ioos:station:TCOON:524:1,2017-11-12T22:18:00Z,29.8672,-93.9310,1.694,1111122 